sat.trackr.live / text

‹ back to catalog

YAOGAN-32 02B

NORAD 49384 · 2021-099B

PAYLOAD ACTIVE UNKNOWN

§ Identity

Operator
Country
PRC
Launch date
2021-11-03
Launch site
JSC
Launch vehicle
Mass (kg)
RCS (m²)

External: N2YO · Heavens-Above · Gunter

§ Orbital elements

Epoch: 2026-09-20T23:23:33.255744Z

Period
98.34 min
Inclination
98.2601°
Eccentricity
0.0000844
Mean motion
14.64319142 rev/d
Perigee alt
678.7 km
Apogee alt
679.9 km
Semi-major
7,057.4 km
B*
8.4626e-5
RAAN
37.9881°
Arg perigee
77.1232°
Mean anomaly
283.0065°
Rev number
26,038

§ Raw data

YAOGAN-32 02B1 49384U 21099B   26263.97469046  .00000398  00000+0  84626-4 0  99922 49384  98.2601  37.9881 0000844  77.1232 283.0065 14.64319142260388

JSON: /api/v1/satellites/49384 · /tle

For live sub-satellite position, see the globe view (requires WebGL).

§ Visibility from observer

Set your observer location to see the next 7 days of passes ≥ 10°. The values pass through the URL so the page stays shareable.

No JS? Fill the form by hand. The geolocation button needs JavaScript.